{"data":{"norad_id":51814,"intl_designator":"2022-017AY","name":"STARLINK-3599","alt_names":[],"object_type":"PAYLOAD","status":"ACTIVE","operator":null,"country":"US","launch_date":"2022-02-25","launch_site_code":"AFWTR","launch_vehicle":null,"mission":null,"orbit_class":"UNKNOWN","rcs_meters":null,"size_class":null,"mass_kg":null,"dimensions":null,"purposes":["comms"],"wikipedia_slug":null,"has_3d_model":false,"image_url":null,"decayed_at":null,"tle_current":{"epoch":"2026-09-20T02:58:07.291200Z","epoch_age_seconds":84778,"freshness":"FRESH","line1":"1 51814U 22017AY  26263.12369550  .00000206  00000+0  16802-4 0  9999","line2":"2 51814  53.1604 165.9384 0001229  93.7917 266.3226 15.35395295253572","mean_motion":15.35395295,"eccentricity":0.0001229,"inclination_deg":53.1604,"raan_deg":165.9384,"arg_perigee_deg":93.7917,"mean_anomaly_deg":266.3226,"bstar":1.6802e-5,"rev_number":25357,"period_min":93.786922800229,"perigee_km":458.90623595588,"apogee_km":460.58698774768,"semimajor_km":6837.8836118518,"source":"CELESTRAK","updated_at":"2026-09-20T09:00:39.944094Z"}}}